TimePST,TemperatureF,Dew PointF,Humidity,Sea Level PressureIn,VisibilityMPH,Wind Direction,Wind SpeedMPH,Gust SpeedMPH,PrecipitationIn,Events,Conditions,WindDirDegrees,DateUTC
12:53 AM,57.0,37.9,49,30.11,10.0,NE,4.6,-,N/A,,Clear,50,2013-02-01 08:53:00
1:53 AM,55.0,37.9,53,30.12,10.0,Calm,Calm,-,N/A,,Clear,0,2013-02-01 09:53:00
2:53 AM,57.0,37.9,49,30.10,10.0,ENE,4.6,-,N/A,,Clear,60,2013-02-01 10:53:00
3:53 AM,55.0,37.9,53,30.11,10.0,NE,4.6,-,N/A,,Clear,50,2013-02-01 11:53:00
4:53 AM,52.0,37.0,57,30.10,10.0,NNE,6.9,-,N/A,,Clear,30,2013-02-01 12:53:00
5:53 AM,55.9,37.0,49,30.12,10.0,NE,6.9,-,N/A,,Clear,40,2013-02-01 13:53:00
6:53 AM,54.0,37.0,53,30.14,10.0,NNE,8.1,-,N/A,,Clear,30,2013-02-01 14:53:00
7:53 AM,64.0,37.0,37,30.12,10.0,NE,4.6,-,N/A,,Clear,50,2013-02-01 15:53:00
8:53 AM,71.1,37.0,29,30.12,10.0,Calm,Calm,-,N/A,,Clear,0,2013-02-01 16:53:00
9:53 AM,75.9,39.9,27,30.13,10.0,Calm,Calm,-,N/A,,Clear,0,2013-02-01 17:53:00
10:53 AM,-9999,-9999,N/A,30.11,10.0,ESE,5.8,-,N/A,,Clear,120,2013-02-01 18:53:00
11:53 AM,-9999,-9999,N/A,30.10,10.0,Calm,Calm,-,N/A,,Clear,0,2013-02-01 19:53:00
12:53 PM,89.1,28.9,12,30.07,10.0,Calm,Calm,-,N/A,,Clear,0,2013-02-01 20:53:00
1:53 PM,96.1,30.9,10,30.06,10.0,WNW,3.5,-,N/A,,Clear,300,2013-02-01 21:53:00
2:53 PM,95.0,41.0,15,30.06,10.0,West,6.9,-,N/A,,Scattered Clouds,270,2013-02-01 22:53:00
3:53 PM,96.1,39.9,14,30.06,10.0,WNW,4.6,-,N/A,,Mostly Cloudy,290,2013-02-01 23:53:00
4:53 PM,91.9,43.0,18,30.07,10.0,West,6.9,-,N/A,,Mostly Cloudy,260,2013-02-02 00:53:00
5:53 PM,71.1,39.9,32,30.09,10.0,Calm,Calm,-,N/A,,Clear,0,2013-02-02 01:53:00
6:53 PM,69.1,42.1,38,30.12,10.0,Calm,Calm,-,N/A,,Clear,0,2013-02-02 02:53:00
7:53 PM,66.9,43.0,42,30.13,10.0,Calm,Calm,-,N/A,,Clear,0,2013-02-02 03:53:00
8:53 PM,64.9,42.1,43,30.14,10.0,Calm,Calm,-,N/A,,Clear,0,2013-02-02 04:53:00
9:53 PM,62.1,44.1,52,30.15,10.0,East,3.5,-,N/A,,Clear,100,2013-02-02 05:53:00
10:53 PM,61.0,43.0,52,30.14,10.0,NE,4.6,-,N/A,,Clear,40,2013-02-02 06:53:00
11:53 PM,66.0,42.1,42,30.14,10.0,ENE,4.6,-,N/A,,Clear,70,2013-02-02 07:53:00